Location: Albany
(35.0170°S, 117.8920°E)
Time: 20:44:52
(UTC+08:00)

A-11 Canister half - Pass Details

Date: 24 January 2021
Orbit: 1525 x 1684 km, 47.3° (Epoch: 03 March)

Event Time Altitude Azimuth Distance (km) Brightness Sun altitude
Rises 23:14:11 0° 6° (N) 4,913 - -33.7°
Reaches altitude 10° 23:19:21 10° 28° (NNE) 3,940 - -34.0°
Maximum altitude 23:24:18 15° 58° (ENE) 3,571 - -34.3°
Drops below altitude 10° 23:29:14 10° 88° (E) 3,944 - -34.6°
Exits shadow 23:29:20 10° 88° (E) 3,958 11.0 -34.6°
Sets 23:34:20 0° 109° (ESE) 4,921 11.7 -34.8°
